Wind_Speed
23 22 20 23 17 25 22 23 22 20 22 20 16 16 18 16 14 14 15 14 12 13 11 11 7 6 7 8 8 8 8 8 6
26 26 21 21 18 13 28 25 25 23 23 22 19 18 20 18 16 16 14 15 16 12 10 9 9 8 10 10 9 10 11 9 7
21 28 21 21 18 23 22 26 25 25 25 25 23 19 19 18 17 18 18 18 16 14 13 10 10 9 8 8 9 10 11 8 7
17 18 21 24 19 18 25 28 28 24 28 28 24 23 22 22 20 19 19 21 18 17 15 13 12 10 9 9 10 11 10 9 8
18 16 22 21 20 22 26 28 35 28 31 25 24 23 23 23 21 21 20 21 20 18 17 14 15 16 17 17 15 13 13 12 11
18 20 17 24 24 23 28 27 32 29 30 28 25 25 25 24 25 25 26 25 22 21 20 18 17 17 18 18 18 17 17 15 14
18 17 18 20 23 21 26 28 28 35 30 30 26 23 25 26 26 26 27 27 25 25 25 23 22 22 20 20 19 20 19 17 17
20 19 20 17 25 25 21 24 35 37 35 32 30 29 28 27 25 27 29 29 28 28 27 26 26 24 23 23 23 21 21 20 20
22 20 21 19 19 20 19 24 29 33 38 40 33 33 30 32 27 31 31 33 32 30 28 27 26 25 24 25 24 22 22 22 20
21 20 21 21 19 22 26 27 30 39 34 36 38 38 32 33 31 29 28 32 30 28 29 28 26 26 26 26 26 25 26 23 22
17 18 18 20 19 19 21 23 25 22 33 28 39 39 33 40 36 33 30 31 28 30 33 32 30 29 27 26 27 25 25 25 24
17 15 12 16 14 15 17 19 11 16 21 21 24 28 33 33 33 37 36 37 34 36 36 33 31 27 27 29 28 29 33 30 24
16 17 13 17 13 21 21 18 21 19 19 26 24 22 25 27 31 38 36 40 33 34 40 35 35 30 31 29 35 33 26 24 29
13 11 11 16 13 7 15 20 19 22 19 23 23 26 24 20 18 24 26 39 42 34 31 41 42 41 40 38 32 28 29 32 31
15 14 14 20 18 20 21 2 19 13 7 6 7 11 25 23 18 22 21 24 24 23 30 32 33 29 30 33 32 30 33 35 34
19 19 16 20 13 7 6 11 15 9 6 6 7 6 7 8 15 23 25 24 30 28 31 32 31 33 34 31 29 27 27 29 33
28 23 14 11 13 13 13 8 11 9 10 6 6 8 7 8 10 15 25 24 29 33 30 30 25 23 22 23 23 21 19 15 15
24 19 15 12 10 10 10 8 6 6 7 7 8 9 10 11 12 13 15 15 15 17 17 21 19 26 27 23 22 23 24 26 27
14 14 11 9 8 8 6 6 7 8 9 10 11 14 16 18 19 20 21 21 22 22 23 24 27 28 29 31 28 28 28 26 26
11 10 9 7 6 7 8 8 7 7 8 9 12 16 20 23 26 28 29 29 29 30 30 30 30 30 29 30 31 32 34 34 35
Wind_Direction
264 254 253 250 245 221 219 215 208 220 222 214 204 215 213 218 206 203 210 219 219 219 210 197 203 214 198 202 205 203 218 226 229
263 268 254 245 234 227 229 228 214 215 223 220 207 204 210 215 217 211 214 229 225 238 233 213 202 199 200 203 206 215 227 227 219
260 264 255 241 239 235 228 221 219 218 219 221 212 204 220 225 221 222 218 223 231 228 227 229 228 218 214 206 219 226 226 216 217
262 275 257 244 228 233 242 227 220 221 218 221 211 206 212 225 228 227 229 226 222 224 226 227 233 227 228 230 240 243 244 240 232
264 255 262 256 255 245 234 237 229 222 223 217 216 214 213 221 228 233 234 233 230 231 230 233 232 231 237 233 238 242 243 245 249
268 253 262 259 258 251 236 229 226 228 222 213 209 217 221 222 222 228 234 233 232 236 238 234 233 229 240 235 242 239 242 242 243
265 261 262 258 247 248 252 237 228 222 217 228 219 224 223 224 226 229 235 238 235 236 237 238 236 232 234 239 244 242 247 246 246
264 257 254 264 247 248 248 227 221 217 222 224 229 233 223 223 226 231 237 235 235 235 237 238 243 242 238 238 239 241 245 244 249
255 262 254 262 265 244 235 213 213 219 230 229 224 232 236 234 228 230 238 240 234 237 236 242 244 245 241 245 248 246 246 246 249
251 275 262 255 274 236 236 225 231 232 224 227 236 239 234 234 243 239 239 232 234 237 239 241 243 243 242 244 247 249 247 248 250
254 259 248 247 268 262 245 248 247 235 226 236 230 232 235 235 240 244 243 242 235 250 244 243 241 243 244 245 250 252 247 246 260
241 221 255 227 248 267 254 217 247 243 219 229 233 234 234 239 243 240 244 244 251 244 241 241 247 248 240 248 250 259 254 244 261
225 240 240 218 222 266 271 239 233 228 223 234 231 240 232 232 238 235 237 233 253 242 236 238 241 242 243 245 255 254 250 261 258
242 229 195 210 209 232 274 247 212 214 221 229 232 235 236 241 239 225 242 240 246 246 240 244 243 245 249 246 258 252 260 263 260
204 187 188 205 204 202 208 243 192 180 277 312 292 228 223 240 233 237 233 231 226 234 229 231 241 246 249 252 257 261 258 262 271
196 191 181 178 170 185 252 166 169 204 202 208 208 244 232 231 233 226 223 223 227 224 223 228 237 248 245 235 234 244 245 244 246
188 199 179 139 144 141 153 162 162 169 182 193 190 202 204 189 189 228 235 245 223 215 216 217 228 235 244 237 226 224 233 250 249
149 157 162 175 167 164 173 190 195 205 234 247 260 265 267 258 245 237 230 226 226 240 255 253 248 240 239 242 252 253 253 256 255
163 165 161 167 159 174 186 196 205 224 236 246 256 262 265 265 267 266 261 256 252 248 244 242 237 241 245 247 249 258 262 263 267
155 159 168 182 193 216 225 230 230 246 261 263 262 259 258 259 260 259 255 250 248 249 251 250 251 254 255 254 258 262 264 265 265
Height
5865 5866 5868 5869 5868 5871 5873 5876 5877 5882 5884 5886 5891 5895 5897 5900 5902 5904 5907 5908 5907 5910 5912 5914 5915 5916 5916 5917 5919 5921 5922 5924 5925
5861 5860 5863 5864 5865 5866 5869 5873 5876 5879 5882 5884 5886 5891 5895 5898 5901 5902 5904 5907 5907 5906 5909 5912 5914 5916 5917 5917 5918 5920 5922 5924 5924
5857 5856 5857 5860 5862 5864 5866 5870 5874 5877 5881 5883 5884 5886 5891 5895 5898 5902 5903 5905 5906 5906 5907 5909 5911 5914 5916 5917 5918 5920 5921 5921 5920
5851 5851 5853 5855 5859 5861 5862 5866 5870 5874 5878 5880 5881 5882 5886 5890 5894 5898 5901 5902 5904 5905 5906 5907 5908 5911 5912 5913 5916 5916 5916 5917 5917
5845 5846 5846 5848 5851 5855 5860 5861 5864 5868 5872 5876 5878 5880 5882 5885 5890 5893 5896 5899 5901 5903 5904 5905 5906 5908 5910 5911 5913 5913 5914 5913 5915
5840 5840 5841 5843 5844 5847 5851 5854 5856 5862 5867 5871 5872 5876 5879 5881 5884 5887 5891 5895 5897 5899 5901 5903 5904 5905 5907 5909 5909 5910 5911 5912 5912
5835 5834 5836 5837 5838 5840 5841 5845 5848 5853 5859 5863 5866 5870 5874 5876 5880 5883 5885 5889 5891 5893 5895 5898 5898 5899 5901 5903 5905 5906 5907 5908 5908
5829 5828 5830 5831 5832 5834 5835 5836 5841 5846 5851 5855 5859 5864 5867 5871 5874 5878 5880 5883 5884 5886 5889 5892 5894 5895 5897 5897 5898 5901 5903 5904 5905
5822 5823 5823 5825 5826 5828 5831 5834 5837 5841 5845 5850 5854 5857 5861 5865 5869 5872 5874 5878 5880 5881 5882 5885 5888 5890 5891 5892 5893 5896 5898 5899 5901
5816 5816 5817 5819 5821 5823 5825 5827 5832 5835 5839 5843 5847 5852 5855 5858 5860 5864 5866 5870 5873 5876 5877 5878 5880 5883 5885 5886 5888 5889 5891 5893 5894
5809 5810 5812 5813 5815 5817 5819 5822 5823 5825 5831 5834 5838 5844 5846 5851 5854 5857 5860 5864 5866 5869 5872 5874 5875 5877 5879 5880 5881 5883 5885 5886 5886
5803 5806 5806 5809 5811 5813 5816 5819 5821 5824 5826 5829 5832 5835 5838 5842 5845 5849 5852 5855 5859 5861 5863 5866 5868 5870 5871 5873 5875 5877 5878 5880 5880
5798 5801 5802 5804 5806 5808 5812 5813 5817 5820 5821 5823 5826 5828 5830 5834 5837 5840 5844 5847 5850 5852 5855 5858 5861 5863 5864 5865 5867 5869 5871 5871 5873
5794 5796 5798 5801 5804 5805 5807 5807 5811 5814 5817 5819 5823 5824 5826 5829 5830 5832 5836 5838 5841 5844 5847 5851 5852 5854 5855 5855 5857 5857 5860 5862 5863
5790 5794 5796 5797 5799 5801 5804 5807 5809 5810 5813 5815 5817 5818 5821 5825 5826 5829 5830 5832 5834 5836 5838 5841 5843 5846 5846 5847 5848 5849 5851 5853 5853
5786 5789 5789 5790 5794 5798 5800 5803 5803 5808 5809 5811 5811 5815 5817 5819 5823 5823 5826 5828 5830 5831 5832 5835 5838 5838 5839 5838 5838 5839 5841 5841 5842
5780 5785 5788 5792 5795 5798 5800 5803 5805 5807 5807 5809 5810 5812 5814 5815 5817 5819 5822 5823 5823 5823 5825 5826 5829 5831 5832 5833 5833 5834 5835 5835 5835
5782 5786 5790 5793 5795 5797 5800 5801 5802 5804 5807 5808 5809 5812 5812 5813 5815 5815 5816 5817 5818 5820 5821 5823 5824 5828 5828 5828 5830 5831 5831 5831 5831
5788 5790 5791 5792 5793 5797 5798 5800 5801 5803 5805 5805 5806 5807 5808 5809 5810 5811 5812 5813 5814 5815 5816 5817 5819 5821 5822 5822 5822 5824 5824 5824 5824
5789 5791 5792 5793 5794 5796 5798 5800 5800 5800 5802 5801 5801 5802 5802 5802 5802 5803 5805 5806 5808 5809 5810 5811 5812 5813 5814 5814 5814 5815 5816 5817 5817